Dewpoint
71 71 71 70 71 70 69 67 57 60 59 54 54 55 54 60 62 62 62 63 62 61 65 61 58 57 58 57 57 60 62 57 57 52 53 65 69 71 71 72 72 71 72 73 74 75 75 76 77 76 76 76 76 76 76 76 76 76 76 76 76 76 76 76 75 75 74 73 73 73 74 74 74 75 75 75 75 75 75 75 75 75 75 74 74 74 74 74 74 75 74 74 74 74 74 74 74
70 71 70 70 70 68 63 67 58 58 57 53 53 56 56 60 62 61 61 61 63 63 61 58 58 61 62 60 61 60 61 64 64 64 66 68 69 70 71 73 72 71 72 73 74 74 74 75 77 76 76 76 76 76 76 76 76 76 75 76 75 75 75 75 74 74 73 72 73 73 74 74 75 74 74 74 75 75 75 75 75 75 75 75 74 74 74 74 75 75 74 75 75 75 75 74 75
71 71 70 72 70 69 67 65 55 56 52 50 52 55 61 60 58 60 62 64 63 63 59 58 60 61 60 60 59 61 58 65 64 64 65 69 67 69 72 73 72 72 72 73 73 74 75 75 77 77 76 76 76 76 76 76 76 76 76 76 75 75 75 74 73 74 73 73 73 74 74 74 74 74 74 75 75 75 75 75 75 74 74 75 75 75 74 75 75 75 74 74 74 74 74 74 74
71 70 68 68 63 67 63 61 58 54 52 52 53 56 60 58 58 63 64 65 63 60 58 59 61 64 59 59 62 63 63 62 64 64 65 67 67 69 72 73 73 72 72 73 73 73 75 76 77 77 76 77 76 76 77 76 76 76 76 76 75 76 75 75 74 74 73 73 74 74 74 73 74 74 74 75 74 74 74 74 74 74 74 74 75 75 75 75 75 74 74 74 74 75 75 74 74
70 70 69 69 66 61 62 59 57 58 52 53 52 57 59 61 62 64 65 64 62 60 58 59 61 64 65 64 63 61 61 65 65 66 66 67 69 70 72 72 72 72 72 73 73 73 74 77 77 76 76 76 76 75 76 75 75 76 75 76 76 75 75 74 74 73 74 74 74 74 74 74 74 73 74 74 74 74 74 74 74 74 74 74 75 75 75 75 74 74 74 75 74 74 74 73 73
70 69 70 71 64 68 63 58 56 54 54 57 55 56 59 61 62 64 63 62 63 60 59 59 61 61 62 63 65 62 64 62 64 66 66 68 70 71 71 72 71 71 72 72 73 74 74 77 77 77 76 76 76 76 76 75 75 76 75 76 76 75 75 75 74 74 73 73 74 73 74 74 74 75 74 75 74 75 74 74 74 74 75 74 74 76 75 74 75 75 74 74 74 73 73 74 73
66 67 68 68 67 68 58 57 55 55 55 58 57 58 61 62 61 62 62 62 62 61 61 61 62 62 61 63 64 65 66 65 65 65 66 69 70 71 71 71 71 71 72 73 73 74 74 77 77 77 76 76 76 76 76 75 76 76 75 75 75 75 75 75 74 74 73 74 74 74 74 75 75 75 75 75 75 75 75 74 75 75 74 74 75 75 75 74 74 75 75 74 74 74 74 74 74
69 68 65 62 61 62 57 55 55 56 56 61 60 60 61 62 62 62 60 62 60 60 61 62 61 63 63 63 62 66 67 66 66 67 69 69 70 71 70 71 71 71 72 73 74 74 76 76 76 76 76 76 76 76 76 76 75 75 75 75 75 75 75 75 75 74 74 74 75 75 75 75 75 75 75 75 75 75 75 75 75 75 74 74 74 74 75 74 73 75 74 75 75 74 74 74 74
68 69 68 63 58 58 55 54 54 58 58 59 61 62 63 64 62 60 59 60 61 61 61 61 61 59 62 63 63 66 67 67 68 70 69 70 70 70 70 70 70 71 71 72 73 74 75 76 76 76 76 76 76 76 76 76 76 75 75 75 75 75 75 75 75 75 75 75 75 75 75 75 74 75 74 74 74 74 75 74 75 75 75 75 74 74 75 75 74 73 74 75 74 74 74 74 73
68 68 62 61 59 54 54 52 53 57 58 62 60 61 63 63 62 63 61 59 60 60 61 61 61 62 63 62 64 65 66 68 68 69 69 70 70 70 70 70 71 71 71 71 72 72 73 76 76 76 76 76 76 76 76 76 75 75 75 75 75 75 75 74 74 74 74 75 75 75 75 75 75 75 75 75 75 75 75 74 74 75 75 75 74 74 75 75 74 73 74 73 73 74 74 74 74
65 68 69 59 56 54 53 51 53 56 58 60 61 63 62 63 63 61 62 60 61 60 62 62 62 62 62 63 65 68 68 68 68 67 69 69 70 70 69 71 71 71 70 71 72 73 73 75 76 76 76 76 76 76 76 76 75 75 75 75 75 75 74 75 75 75 76 76 75 75 75 75 75 75 75 75 75 74 74 74 74 75 75 75 74 75 75 75 74 74 74 75 74 74 74 75 75
63 64 63 57 55 54 53 53 54 55 59 60 61 65 63 62 63 61 61 60 60 61 61 61 62 63 62 63 65 67 67 67 67 68 69 69 69 69 70 71 71 71 70 71 72 72 73 75 75 76 75 76 76 76 75 75 75 75 75 75 75 75 75 75 75 75 75 75 75 75 74 75 75 75 75 76 75 74 74 74 74 74 75 75 75 75 75 75 74 74 74 75 75 75 74 74 74
65 64 60 57 54 55 54 55 54 55 58 58 60 63 63 62 61 62 60 60 60 60 60 63 63 62 60 62 67 67 66 67 68 68 69 69 69 70 71 71 71 71 71 72 72 72 73 74 74 75 75 76 76 76 76 75 75 75 75 75 75 75 75 75 75 75 75 75 75 75 75 75 75 75 76 75 75 74 74 74 74 74 75 75 75 75 75 75 75 74 74 74 74 75 74 74 74
65 63 60 56 58 56 55 54 56 55 54 58 62 64 62 61 61 61 60 59 61 60 61 63 63 63 63 64 66 65 65 67 69 69 69 70 70 70 70 71 71 72 72 72 72 73 73 73 73 73 75 75 76 76 75 75 75 75 75 75 75 74 75 75 75 75 76 75 75 75 75 75 74 75 75 75 75 75 75 75 75 75 74 75 75 75 75 75 74 74 73 74 74 74 74 74 74
65 65 61 59 57 57 56 55 52 53 52 59 62 64 64 66 64 62 61 59 60 63 63 63 63 60 61 62 63 63 65 67 68 68 69 70 70 70 70 71 71 72 72 72 72 72 72 73 72 74 75 75 76 76 76 75 75 76 75 75 75 74 74 74 74 75 76 76 75 75 74 73 74 75 75 75 75 75 75 75 74 75 75 75 75 75 74 74 74 74 74 74 74 73 74 74 74
68 64 61 57 54 55 55 55 54 52 52 61 64 66 65 65 65 64 64 62 62 63 62 61 63 59 62 61 63 64 66 68 68 69 69 69 70 69 71 70 70 71 72 72 72 72 72 73 73 74 75 75 75 74 75 75 75 75 75 75 75 75 74 74 73 74 74 74 74 74 74 75 74 73 75 75 76 76 75 74 75 75 75 75 75 75 74 74 73 73 74 73 73 73 73 73 73
68 66 60 57 54 57 54 54 53 48 57 61 66 64 61 63 64 65 68 66 62 61 62 62 61 63 61 63 65 65 66 68 68 69 68 69 69 68 70 70 71 71 72 72 73 72 72 73 74 74 75 75 74 74 74 75 74 75 75 75 75 75 75 74 74 74 74 74 75 76 75 76 76 75 74 74 75 75 76 76 76 75 74 74 74 74 74 73 73 73 74 73 73 73 73 74 73
66 61 58 56 59 56 56 54 52 54 57 60 63 62 61 60 62 63 65 64 63 62 62 63 64 64 65 66 66 66 67 67 68 67 67 68 68 68 68 69 70 71 71 71 72 72 72 73 74 74 74 75 75 74 74 74 75 75 75 75 75 75 75 75 75 74 75 75 76 75 76 75 75 76 75 74 75 74 74 74 74 74 74 74 74 74 74 74 74 73 73 73 74 75 75 75 75
62 59 58 55 56 57 58 56 57 54 53 60 63 62 60 60 62 63 62 62 61 61 62 63 63 65 65 66 66 66 67 67 67 66 66 67 67 67 67 68 69 70 72 71 71 72 73 73 73 73 74 75 74 74 73 74 75 75 75 75 75 75 75 76 75 76 76 76 76 75 76 75 75 76 76 75 75 74 73 73 74 74 74 74 74 74 74 74 74 73 73 74 75 74 76 76 75
63 59 56 57 59 59 61 59 59 57 56 60 62 62 60 61 61 63 61 60 60 60 61 61 62 63 64 65 65 65 66 66 66 66 66 67 66 66 67 68 68 69 70 70 71 71 72 73 73 74 74 75 74 74 74 74 74 75 74 74 74 75 75 75 76 76 76 76 75 75 74 76 75 76 75 75 75 75 75 73 73 74 75 75 75 75 74 75 75 75 75 75 73 73 74 73 73
61 60 57 59 60 57 59 58 58 56 57 58 61 62 60 61 61 61 61 60 60 61 62 61 62 63 64 64 64 65 65 65 66 66 66 67 66 66 67 68 67 69 70 70 71 71 72 73 73 73 74 75 74 74 74 73 74 73 73 73 74 74 75 75 75 75 76 76 76 74 74 75 74 75 75 75 75 76 76 75 74 74 75 76 75 77 76 76 75 76 76 74 72 73 72 73 73
61 59 59 60 59 57 60 58 57 57 59 60 60 60 59 62 62 61 60 59 59 60 62 62 63 64 63 64 64 64 64 64 65 65 65 66 66 66 67 68 68 69 70 70 71 71 71 72 73 73 74 74 74 74 73 75 75 73 74 73 74 75 75 75 75 75 74 76 74 73 74 73 73 74 75 74 75 76 75 75 75 75 75 75 76 76 76 76 75 73 73 72 71 71 71 72 73
57 59 60 61 60 59 61 59 62 59 59 59 58 59 60 61 61 61 60 58 59 61 63 64 64 64 64 64 64 64 64 64 64 65 64 65 66 66 66 67 67 69 70 70 71 71 71 72 73 73 73 74 74 75 74 74 74 74 74 74 74 74 75 74 73 74 75 76 74 74 70 71 71 71 73 74 73 74 75 75 75 75 76 75 76 74 75 75 73 73 72 72 72 70 70 72 73
59 57 59 59 60 60 60 60 60 59 58 57 58 60 59 60 59 61 60 60 60 61 63 65 65 65 65 64 64 63 63 64 64 64 65 65 66 66 66 67 67 69 70 70 70 70 71 70 72 73 73 73 74 75 75 74 75 74 73 75 75 74 75 73 73 73 75 75 75 74 74 72 71 71 73 73 73 72 73 76 76 74 73 74 76 75 73 73 73 73 74 73 73 73 70 72 71
58 58 59 59 59 59 58 58 57 57 58 57 58 58 58 60 58 61 60 60 60 62 64 65 65 65 64 64 64 64 63 63 63 64 65 66 66 66 67 67 68 68 69 70 70 70 70 71 72 72 72 73 73 73 73 74 74 74 74 73 73 75 74 73 74 75 73 74 75 76 75 73 73 73 73 73 74 73 72 73 73 73 74 74 75 74 74 73 73 73 74 73 74 73 72 71 72
57 58 58 57 56 56 55 55 55 54 55 56 56 56 57 59 60 59 60 60 61 64 64 65 65 65 64 64 64 64 64 63 64 64 65 66 66 66 67 67 67 68 68 69 70 70 71 70 71 71 71 72 72 71 73 73 73 73 74 74 74 75 74 74 75 72 73 73 74 75 75 75 74 73 74 75 75 74 73 72 73 73 73 74 74 74 74 73 73 74 74 74 72 73 72 72 72
54 56 57 57 57 56 56 55 54 54 53 54 53 53 54 58 58 54 60 61 63 64 64 65 65 64 64 64 64 64 64 63 64 64 65 66 66 66 67 67 68 68 68 69 70 71 71 70 70 71 71 73 72 71 73 73 74 73 74 73 73 74 74 74 74 74 72 72 74 76 76 76 75 74 74 75 75 75 75 73 72 74 73 74 75 74 74 74 75 74 75 74 73 73 73 73 72
52 52 53 54 54 54 53 54 54 53 50 52 53 52 53 57 57 53 59 61 63 63 64 64 64 64 64 64 64 65 64 64 65 65 64 65 66 66 66 67 67 68 68 68 69 71 71 70 69 71 71 72 73 72 73 72 73 72 74 73 73 73 74 74 73 74 73 73 75 76 76 75 76 75 76 76 75 75 75 74 74 74 74 74 75 74 74 75 75 75 76 76 75 75 73 73 74
51 49 47 47 46 45 46 48 49 50 48 52 52 52 52 55 55 56 60 62 62 63 64 64 64 64 64 64 64 65 65 64 65 65 65 65 66 66 66 67 67 68 68 69 69 70 69 70 70 71 71 72 72 71 72 72 72 71 72 72 73 73 73 74 73 73 73 74 76 76 76 76 77 76 76 76 76 74 74 75 74 75 75 75 75 75 76 75 75 75 76 76 75 75 73 73 73
50 49 47 45 44 44 47 47 47 47 48 51 53 46 49 52 54 57 61 61 62 63 63 63 64 64 63 63 63 64 65 65 65 65 65 66 66 66 67 66 68 68 68 69 69 69 69 70 70 70 70 71 72 71 72 72 72 72 72 71 73 73 72 72 73 74 74 74 74 76 76 77 77 77 77 77 76 74 75 75 74 74 75 76 76 77 74 74 74 75 75 75 74 74 73 73 71
45 45 44 42 42 43 45 46 46 46 49 51 51 49 47 50 53 57 60 61 62 62 63 63 64 64 63 63 63 64 64 65 65 65 65 66 66 67 67 67 68 68 69 68 69 70 70 70 70 70 71 71 71 72 72 73 72 72 72 72 72 73 73 73 72 73 73 72 74 74 77 77 77 78 77 77 76 75 73 74 74 73 76 77 75 76 75 74 75 75 74 74 74 73 72 73 72
37 36 34 38 39 41 44 44 46 45 51 50 50 46 46 48 51 57 60 61 61 61 62 63 63 63 62 63 63 63 64 64 66 65 65 65 66 67 67 67 68 69 69 69 69 70 70 70 71 69 70 71 72 72 73 73 73 73 73 73 73 74 73 73 72 71 71 71 72 74 77 77 77 78 78 77 76 75 74 73 74 77 77 76 75 76 75 74 75 75 75 74 74 72 74 73 73
32 32 34 35 37 39 42 44 45 46 50 51 49 46 48 48 51 57 59 60 60 61 62 62 63 63 62 62 62 63 63 64 65 65 65 66 66 66 68 68 68 69 70 70 69 70 70 70 71 69 70 71 72 72 73 74 74 74 74 73 72 74 73 72 72 72 72 71 71 71 75 77 77 78 78 78 77 76 75 75 74 76 77 75 76 76 74 75 75 72 76 76 74 75 73 71 71
32 31 31 37 37 37 40 41 41 44 46 48 50 46 46 48 52 57 59 60 60 60 61 62 63 63 63 62 62 62 63 63 64 65 66 66 66 67 67 69 69 69 69 70 70 70 69 70 70 70 71 71 72 73 74 73 74 74 73 73 74 72 71 70 70 72 72 70 72 73 75 77 77 78 78 78 77 76 76 75 75 77 76 76 76 75 75 75 75 74 75 76 76 74 73 72 71
31 32 31 33 38 39 39 40 39 41 45 45 48 47 46 48 53 56 58 59 59 60 61 61 62 62 63 63 62 62 63 63 64 65 66 66 67 67 68 68 69 69 69 69 70 71 71 71 71 71 71 71 72 73 74 73 73 73 72 73 72 73 73 71 71 71 70 71 70 74 76 76 77 78 78 78 78 76 76 75 76 77 76 76 76 75 74 75 75 76 75 76 77 75 74 73 73
32 33 32 32 33 36 38 39 38 41 43 43 45 46 46 48 51 56 57 59 59 60 61 61 62 62 63 63 63 63 63 63 65 66 66 66 67 67 67 68 68 69 69 70 71 71 71 71 71 71 71 71 72 73 73 71 71 70 70 70 71 71 72 71 72 70 71 70 72 74 76 76 77 77 78 78 78 77 76 75 76 76 76 76 76 74 73 74 75 75 76 75 75 74 75 75 74
33 33 33 33 33 34 36 36 36 40 40 42 44 46 45 46 49 54 57 58 59 59 60 61 62 62 62 62 62 63 64 63 65 66 66 67 66 67 68 68 68 69 70 69 70 70 71 70 71 71 71 72 72 71 71 70 70 70 70 69 68 69 71 71 71 70 70 69 73 74 76 75 76 77 77 78 77 77 77 77 77 77 76 76 76 75 74 74 77 76 76 76 74 74 73 74 73
30 30 33 33 34 33 35 35 36 38 38 39 43 43 44 45 49 52 57 57 57 58 60 61 61 62 62 63 63 63 64 64 65 65 65 66 66 67 67 68 69 68 69 69 70 70 71 71 71 71 71 72 72 71 72 71 71 70 69 68 67 67 70 70 70 71 70 70 75 76 76 75 76 77 77 78 78 77 77 76 77 77 77 76 77 77 77 76 77 76 76 75 76 74 74 72 71
31 30 30 30 32 32 32 33 33 35 39 37 40 42 42 44 47 52 56 57 58 58 59 60 61 62 62 62 63 63 64 64 64 64 64 64 65 66 67 67 68 68 68 69 69 70 71 71 71 72 71 71 71 72 72 72 72 71 69 69 68 66 68 69 67 69 71 70 72 75 75 76 76 76 77 78 77 77 77 77 77 77 77 77 77 77 76 76 77 76 76 74 74 75 74 74 73
27 31 31 30 30 32 32 33 33 33 36 37 39 37 39 41 47 51 55 56 58 58 58 60 61 61 62 62 63 63 63 63 63 64 64 64 65 65 66 67 67 67 68 68 68 69 70 71 71 72 72 71 72 72 72 72 72 72 72 71 70 68 68 70 71 71 71 71 71 73 76 76 76 76 76 77 77 77 77 77 76 76 78 78 77 76 76 76 77 77 75 75 74 72 71 72 74
24 28 30 31 30 30 30 31 30 31 31 33 36 36 37 41 44 49 53 56 57 58 58 59 60 61 62 62 63 63 63 64 63 63 64 64 64 64 66 67 67 67 68 68 68 68 68 70 71 72 71 71 72 72 72 73 73 72 72 71 70 70 70 69 69 68 70 72 71 73 74 76 76 75 76 76 76 77 77 77 77 77 77 78 77 76 76 75 76 75 76 76 76 72 71 71 73
23 25 27 30 31 31 30 31 30 31 32 31 32 35 36 39 40 43 50 55 56 58 58 58 60 60 61 61 62 63 63 64 65 64 64 64 65 65 66 66 67 67 68 68 68 68 69 70 71 72 72 71 71 72 72 72 72 71 71 69 69 68 68 68 68 67 67 69 68 69 74 74 75 75 76 76 76 76 77 77 77 76 76 77 77 75 75 76 76 76 76 75 75 76 74 72 71
21 21 26 28 31 31 31 31 31 32 33 34 34 34 35 39 41 43 48 53 55 57 58 58 59 60 60 60 61 61 62 63 64 64 64 64 65 65 66 67 67 67 68 68 68 68 69 70 71 72 72 72 71 72 73 72 72 72 71 69 68 68 68 69 70 68 67 70 71 73 74 75 76 75 75 76 76 77 77 77 77 77 76 77 77 77 76 75 73 75 76 76 75 76 75 73 73
20 25 29 28 29 31 31 31 30 32 32 31 30 30 32 33 35 44 48 51 54 56 57 58 57 59 59 59 60 61 61 62 63 64 64 64 65 65 65 66 66 66 67 68 68 68 70 71 72 72 72 72 72 72 72 72 72 72 71 70 70 69 67 70 72 71 72 73 72 72 73 74 76 76 75 76 76 76 77 77 77 77 76 75 77 76 75 74 75 77 77 77 77 77 76 74 73
19 27 29 29 29 30 31 31 31 31 31 32 32 32 32 32 36 44 45 48 52 55 57 57 58 59 59 59 59 60 61 62 62 63 63 64 64 65 65 66 66 66 66 67 68 69 70 71 71 72 72 72 72 72 72 72 72 72 72 71 71 71 70 70 71 72 72 73 72 73 74 74 76 77 76 76 76 76 77 77 77 77 76 76 77 75 75 74 76 76 77 77 77 77 77 76 75
19 30 29 26 29 30 31 31 31 32 33 33 34 31 31 32 33 35 46 45 48 52 56 56 58 58 59 58 59 59 60 62 62 62 63 64 64 65 65 65 66 66 66 68 68 68 69 70 71 72 72 72 72 73 72 72 72 72 72 71 71 71 71 72 71 71 73 74 73 74 74 75 74 75 76 77 77 77 77 77 76 76 76 75 75 74 75 76 76 77 76 76 77 77 77 77 76
25 23 29 29 30 28 31 31 33 34 32 34 33 32 31 30 33 32 41 45 47 49 54 56 58 59 59 59 59 59 59 60 61 62 63 64 64 65 65 65 66 66 66 67 67 68 68 69 70 71 72 72 72 72 72 72 72 72 72 72 72 72 72 72 72 72 73 73 73 73 74 74 75 74 74 76 76 76 76 77 75 75 76 76 76 76 76 74 74 75 75 76 77 77 77 77 76
25 19 23 29 31 31 34 32 34 30 28 33 31 31 30 30 34 34 36 44 46 48 50 54 56 58 59 59 58 59 59 60 60 61 62 63 64 65 65 65 66 66 66 67 66 67 68 69 70 71 72 72 72 72 72 72 71 72 72 72 72 72 72 71 71 72 72 72 72 73 74 74 75 75 76 75 75 74 76 76 76 76 76 76 76 76 75 75 74 74 75 76 76 77 78 78 76
23 20 23 25 29 28 26 30 27 27 26 29 29 29 29 30 34 35 35 37 42 45 45 50 54 56 58 59 59 59 59 59 60 61 62 62 63 64 64 65 67 67 67 68 66 66 68 69 70 71 71 72 72 72 72 72 72 72 72 72 72 72 72 72 72 72 73 72 73 73 74 74 75 75 75 74 74 75 76 77 77 76 76 77 77 77 77 77 76 75 76 76 75 76 76 76 76
21 20 22 21 22 24 24 25 26 26 27 27 26 28 27 30 31 33 32 36 40 43 45 47 52 55 58 59 60 59 59 59 60 60 61 62 63 64 65 65 66 67 67 67 67 68 68 69 70 70 71 72 72 72 72 72 72 72 73 72 72 72 72 72 72 71 72 72 73 73 72 72 74 73 73 75 74 75 75 76 77 77 77 77 78 78 77 77 77 76 76 76 75 76 76 76 76
25 22 22 25 23 20 22 22 23 22 22 24 25 25 27 26 29 30 31 32 35 39 42 49 53 54 57 58 59 59 59 60 60 60 60 61 62 63 64 65 66 67 66 67 67 68 69 69 70 71 71 72 72 72 72 72 72 72 73 72 72 72 71 71 72 72 72 73 72 72 74 72 73 74 74 76 76 76 76 77 77 77 77 77 77 77 77 77 78 77 77 77 76 76 76 76 76
28 27 26 26 23 28 21 24 23 23 22 20 28 23 31 26 39 35 37 33 32 36 39 44 50 53 55 56 57 58 58 59 59 60 60 61 62 63 63 65 66 66 67 66 67 69 69 70 71 71 71 72 71 72 72 72 72 72 73 73 72 72 72 72 72 73 73 73 73 73 74 74 74 74 76 76 76 76 76 76 77 76 77 76 77 77 77 76 77 77 76 76 76 76 77 76 76
27 28 27 27 28 28 25 30 34 27 25 23 28 26 27 29 27 28 29 32 33 33 34 40 45 49 54 55 56 57 58 59 59 59 60 62 62 63 63 64 64 65 66 66 68 69 70 70 70 71 71 71 71 72 72 72 72 72 73 73 72 72 72 71 70 71 70 72 73 73 73 73 74 75 75 75 75 76 76 76 76 75 76 77 77 77 77 77 78 77 76 77 76 75 77 77 76
29 26 26 30 31 30 29 23 30 25 22 28 22 18 19 23 19 27 27 28 31 34 33 33 42 48 52 53 55 57 57 58 59 60 61 62 62 62 61 62 63 64 65 67 69 69 70 70 70 70 71 71 71 71 71 71 72 72 72 72 72 72 71 70 70 71 71 72 73 73 72 73 73 73 74 73 75 75 76 76 76 76 76 76 76 76 77 77 78 76 76 77 76 77 77 77 77
28 27 28 27 28 27 31 30 25 23 22 23 25 23 20 22 24 29 29 27 28 34 37 35 39 46 49 51 54 57 58 58 59 59 61 61 61 61 62 61 62 64 66 67 68 68 68 69 69 68 70 70 70 69 70 71 72 71 71 72 72 72 71 71 71 72 72 72 71 71 71 72 72 73 75 75 75 74 75 75 76 76 76 76 76 76 77 77 77 77 76 76 77 77 77 76 77
30 31 29 28 28 28 29 30 30 30 24 25 22 22 20 23 23 22 27 31 30 29 37 37 38 45 47 50 52 55 58 58 59 59 60 60 61 61 60 61 61 62 64 65 66 66 66 67 69 69 69 70 70 70 71 71 71 71 71 72 72 73 73 72 72 73 72 71 71 71 71 70 72 72 72 74 74 74 74 74 74 74 74 74 75 75 76 77 77 77 76 75 75 76 76 76 76
28 28 28 29 29 30 29 30 28 28 27 26 24 21 23 25 28 23 24 28 36 33 39 44 41 43 46 49 51 54 57 58 59 59 59 60 60 60 60 61 61 61 63 64 64 65 65 66 67 67 69 69 69 69 70 71 71 71 72 72 71 72 72 72 72 72 72 72 72 72 71 71 72 72 72 72 73 74 74 74 73 74 73 75 76 76 76 76 77 77 77 77 76 76 76 76 76
26 26 28 28 28 28 27 27 29 26 27 28 25 23 28 23 31 26 22 25 26 36 37 41 42 41 46 49 52 55 56 58 59 58 58 59 60 60 60 61 61 61 62 62 63 64 64 65 66 67 67 68 68 68 70 71 71 71 71 71 71 71 71 72 71 71 72 71 72 72 72 72 72 72 72 71 73 73 74 74 73 74 75 75 76 77 75 76 76 76 76 76 76 77 76 76 77